This is the latest recevied weather packets stored in our database for station/object IZ5TJI-3. If no packets are shown the sender has not sent any weather packets the latest 10 day(s).
| Time | Temp. | Humidity | Pressure | Rain* | Wind** | Luminosity | Snow |
|---|---|---|---|---|---|---|---|
| 1777779921 | 5.56° C | 82% | 1019.6 hPa | 0 mm | - | - | - |
| 1777779021 | 6.11° C | 83% | 1019.4 hPa | 0 mm | - | - | - |
| 1777778121 | 6.11° C | 82% | 1019.4 hPa | 0 mm | - | - | - |
| 1777777221 | 6.11° C | 82% | 1019.5 hPa | 0 mm | - | - | - |
| 1777776321 | 6.11° C | 82% | 1019.5 hPa | 0 mm | - | - | - |
| 1777775421 | 6.67° C | 80% | 1019.6 hPa | 0 mm | - | - | - |
| 1777774521 | 6.67° C | 80% | 1019.5 hPa | 0 mm | - | - | - |
| 1777773621 | 6.67° C | 79% | 1019.4 hPa | 0 mm | - | - | - |
| 1777772721 | 6.67° C | 79% | 1019.3 hPa | 0 mm | - | - | - |
| 1777771821 | 7.22° C | 78% | 1019.5 hPa | 0 mm | - | - | - |
| 1777770921 | 7.22° C | 78% | 1019.5 hPa | 0 mm | - | - | - |
| 1777770021 | 7.22° C | 77% | 1019.5 hPa | 0 mm | - | - | - |
| 1777769121 | 7.78° C | 74% | 1019.8 hPa | 0 mm | - | - | - |
| 1777768221 | 7.78° C | 74% | 1019.8 hPa | 0 mm | - | - | - |
| 1777767321 | 7.78° C | 74% | 1019.9 hPa | 0 mm | - | - | - |
| 1777766421 | 8.33° C | 72% | 1019.9 hPa | 0 mm | - | - | - |
| 1777765521 | 8.89° C | 72% | 1019.8 hPa | 0 mm | - | - | - |
| 1777764621 | 8.89° C | 72% | 1020 hPa | 0 mm | - | - | - |
| 1777763721 | 9.44° C | 73% | 1019.9 hPa | 0 mm | - | - | - |
| 1777762821 | 9.44° C | 72% | 1020.1 hPa | 0 mm | - | - | - |
| 1777761921 | 9.44° C | 71% | 1020.1 hPa | 0 mm | - | - | - |
| 1777761021 | 9.44° C | 69% | 1020.2 hPa | 0 mm | - | - | - |
| 1777760121 | 10° C | 68% | 1020.1 hPa | 0 mm | - | - | - |
| 1777759221 | 10.56° C | 67% | 1019.9 hPa | 0 mm | - | - | - |
| 1777758321 | 10.56° C | 66% | 1020 hPa | 0 mm | - | - | - |
* Rain latest hour (hover to see other rain measurements)
** Current wind speed in m/s (hover to see current wind gust speed)